Coupe des Départements - Trophée Alex-Jany

Interrégionale

BEAUVAIS

Du Samedi 18 Juin 2016 au Dimanche 19 Juin 2016

Bassin de 25m

100 Papillon Messieurs

Séries

Nom Année Club Pays Temps Points Niv.
1 PENET Julien 2003 CN BERRE MIXTES FRA 1:05:28 976
2 TONGUET Phily 2003 CN BERRE MIXTES FRA 1:08:97 878
3 DESCAMPS Aurelien 2003 CN BERRE MIXTES FRA 1:08:98 878
4 IBBERSON William 2003 CN BERRE MIXTES FRA 1:09:62 861
5 LESERT Vincent 2003 CN BERRE MIXTES FRA 1:09:86 855
6 GARRIDO Raphaël 2003 CN BERRE MIXTES FRA 1:09:96 853
7 LAURENT Charly 2003 CN BERRE MIXTES FRA 1:10:91 829
8 TURAN Rustem 2003 CN BERRE MIXTES FRA 1:11:10 824
9 MUSITELLI Enzo 2003 CN BERRE MIXTES FRA 1:11:65 810
10 ANDRY Lucas 2003 CN BERRE MIXTES FRA 1:11:80 806
11 BOCAHUT Noé 2003 CN BERRE MIXTES FRA 1:11:91 804
12 MORHAIN Thibaut 2003 CN BERRE MIXTES FRA 1:12:48 790
13 BRIESCH Louis 2003 CN BERRE MIXTES FRA 1:14:02 753
14 ALEXANDRE Theo 2003 CN BERRE MIXTES FRA 1:14:24 747
15 GRIS Quentin 2003 CN BERRE MIXTES FRA 1:14:35 745
16 RONDEAU Marien 2003 CN BERRE MIXTES FRA 1:14:88 732
17 DUTHU Jules 2004 CN BERRE MIXTES FRA 1:15:00 729
18 PERE Théophile 2003 CN BERRE MIXTES FRA 1:15:06 728
19 LAALA Elyas 2003 CN BERRE MIXTES FRA 1:15:39 720
20 KAISER Vincent 2003 CN BERRE MIXTES FRA 1:15:50 718
21 TETE Benjamin 2003 CN BERRE MIXTES FRA 1:15:59 715
22 GODET Maxime 2004 CN BERRE MIXTES FRA 1:15:65 714
23 OMS Henri 2003 CN BERRE MIXTES FRA 1:15:93 708
24 VAZZOLER Karel 2004 CN BERRE MIXTES FRA 1:16:25 700
25 HAVE Matthieu 2003 CN BERRE MIXTES FRA 1:16:44 696
26 GIRARD Samuel 2003 CN BERRE MIXTES FRA 1:17:58 670
27 CANALE Loïc 2003 CN BERRE MIXTES FRA 1:17:67 668
28 RAMAUX Lucas 2004 CN BERRE MIXTES FRA 1:17:94 662
29 RENAUD Axel 2004 CN BERRE MIXTES FRA 1:19:42 629
30 DEWAELE Oscar 2003 CN BERRE MIXTES FRA 1:19:95 617
31 POURCINE Mattéo 2003 CN BERRE MIXTES FRA 1:20:67 602
32 STORK Floris 2003 CN BERRE MIXTES FRA 1:20:99 595
33 DEVARENNE Lucas 2004 CN BERRE MIXTES FRA 1:21:12 592
34 WISHAUPT Lucas 2003 CN BERRE MIXTES FRA 1:21:87 577
35 CUENIN Lucas 2004 CN BERRE MIXTES FRA 1:29:61 426
36 LOUYS Arthur 2004 CN BERRE MIXTES FRA 1:34:56 342
37 VANDENBUSSCHE Keyllian 2003 CN BERRE MIXTES FRA 1:35:13 333
38 PICARD Léo 2004 CN BERRE MIXTES FRA 1:35:28 330
39 CARLINI Damien 2004 CN BERRE MIXTES FRA 1:41:70 236
40 TROMPAT Dorian 2003 CN BERRE MIXTES FRA 1:53:86 102